Regional Weather Roundup
Issued by NWS Goodland, KS

Home | Current Version | Previous Version | Graphics & Text | Print | Product List | Glossary On
Versions: 1 2 3 4 5 6 7 8 9 10 11 12 13 14 15 16 17 18 19 20 21 22 23 24 25 26 27 28 29 30 31 32 33 34 35 36 37 38 39 40 41 42 43 44 45 46 47 48 49 50
890
ASUS43 KGLD 232108
RWRGLD

GOODLAND FORECAST AREA HOURLY WEATHER ROUNDUP
NATIONAL WEATHER SERVICE GOODLAND KS
300 PM MDT MON MAY 23 2016

...OFFICIAL OBSERVATIONS...

CITY           SKY/WX    TMP DP  RH WIND       PRES   REMARKS
GOODLAND KS    SUNNY     75  39  27 E6        29.82F
HILL CITY KS   CLOUDY    76  60  57 SE3       29.77F
IMPERIAL NEB   SUNNY     74  35  24 VRB3      29.82F
MCCOOK NEB     SUNNY     78  50  37 CALM      29.79F
AKRON CO       SUNNY     70  32  24 SW8G18    29.87S
BURLINGTON CO  MOSUNNY   75  36  24 E15       29.85F
LIMON CO       SUNNY     69  34  27 SE17G25   29.87F
$$

...UNOFFICIAL OBSERVATIONS...

CITY           SKY/WX    TMP DP  RH WIND       PRES   REMARKS
COLBY KS       SUNNY     75  55  50 E6        29.82S
LENORA KS        N/A     75  32  20 MISG        N/A
NORTON KS      PTSUNNY   79  55  44 E3        29.77F
SHARON SPRINGS   N/A     76  50  39 E10         N/A
KIT CARSON CO    N/A     75  40  28 MISG        N/A
YUMA CO          N/A     72  35  25 CALM        N/A
$$




USA.gov is the U.S. government's official web portal to all federal, state and local government web resources and services.